Location: Владивосток
(43.1151°N, 131.8856°E)
Time: 03:08:46
(UTC+10:00)

deb Delta 89 - Visible Passes

Search period start: 20 July 2025 00:00
Search period end: 30 July 2025 00:00
Orbit: 543 x 646 km, 98.5° (Epoch: 18 July)

Date Brightness Start Highest point End Pass type
(mag) Time Alt. Az. Time Alt. Az. Time Alt. Az.
20 Jul ? 21:46:12 10° N 21:50:04 35° WNW 21:53:49 10° SW visible
21 Jul ? 21:55:54 10° N 21:59:32 28° WNW 22:03:04 10° SW visible
22 Jul ? 22:05:40 10° NNW 22:08:59 23° WNW 22:12:13 10° WSW visible
23 Jul ? 22:15:28 10° NNW 22:18:25 19° WNW 22:21:17 10° WSW visible
24 Jul ? 22:25:23 10° NNW 22:27:49 15° WNW 22:30:13 10° W visible
25 Jul ? 22:35:29 10° NW 22:37:13 12° WNW 22:38:55 10° W visible
26 Jul ? 21:07:35 10° NNE 21:11:46 82° ESE 21:15:46 10° SSW visible
27 Jul ? 21:17:06 10° N 21:21:15 78° WNW 21:25:14 10° SSW visible
28 Jul ? 21:26:39 10° N 21:30:43 61° WNW 21:34:38 10° SSW visible
29 Jul ? 21:36:12 10° N 21:40:10 47° WNW 21:43:59 10° SW visible
